Weather reports worldwide

Advertisment
Weybourne, United Kingdom (3488): temperature & dewpoint: 10.08.2017 18:00:00 - 16.08.2017 18:00:00 (BST)Weybourne, United Kingdom (3488): wind speed & gusts: 10.08.2017 18:00:00 - 16.08.2017 18:00:00 (BST)Weybourne, United Kingdom (3488): wind direction: 10.08.2017 18:00:00 - 16.08.2017 18:00:00 (BST)Weybourne, United Kingdom (3488): reduced air pressure: 10.08.2017 18:00:00 - 16.08.2017 18:00:00 (BST)Weybourne, United Kingdom (3488): visibility: 10.08.2017 18:00:00 - 16.08.2017 18:00:00 (BST)Weybourne, United Kingdom (3488): precipitation: 10.08.2017 18:00:00 - 16.08.2017 18:00:00 (BST)
Date & Time tt [°C] td [°C] ff [km/h] ff [kn] fx [km/h] fx [kn] dd ppp [hPa] vv [km] rr [mm]
16.08.2017 18:00:00 22,4 10,2 18 10 - - SSW 1016,0 40 0,0
16.08.2017 17:00:00 22,4 9,6 28 15 - - SW 1016,9 40 0,0
16.08.2017 16:00:00 22,8 11,0 21 11 - - SSW 1017,3 28 0,0
16.08.2017 15:00:00 21,7 9,4 24 13 - - SSW 1017,7 50 0,0
16.08.2017 14:00:00 22,6 10,7 21 11 - - SSW 1018,0 35 0,0
16.08.2017 13:00:00 21,5 10,8 18 10 - - SW 1018,6 40 0,0
16.08.2017 12:00:00 20,3 11,4 18 10 - - SW 1019,2 50 0,0
16.08.2017 11:00:00 20,0 11,7 16 9 - - SSW 1019,4 50 0,0
16.08.2017 10:00:00 19,2 12,5 13 7 - - S 1019,5 45 0,0
16.08.2017 09:00:00 17,4 13,1 9 5 - - S 1019,5 40 0,0
16.08.2017 08:00:00 14,4 12,4 5 3 - - SW 1019,6 27 0,0
16.08.2017 07:00:00 13,1 11,1 9 5 - - SE 1019,4 45 0,0
16.08.2017 06:00:00 10,4 10,4 8 4 - - SE 1018,9 50 0,0
16.08.2017 05:00:00 9,4 9,2 4 2 - - ESE 1018,8 35 0,0
16.08.2017 04:00:00 9,3 9,0 2 1 - - SSW 1019,0 35 0,0
16.08.2017 03:00:00 9,8 9,5 5 3 - - SW 1019,0 40 0,0
16.08.2017 02:00:00 9,9 9,5 8 4 - - SW 1018,6 45 0,0
16.08.2017 01:00:00 10,6 9,7 8 4 - - SW 1018,5 40 0,0
16.08.2017 00:00:00 11,2 9,7 8 4 - - SW 1018,5 25 0,0
15.08.2017 23:00:00 12,8 9,5 9 5 - - SW 1018,2 50 0,0
15.08.2017 22:00:00 13,9 10,1 9 5 - - WSW 1017,7 40 0,0
15.08.2017 21:00:00 14,5 10,1 11 6 - - SW 1016,7 50 0,0
15.08.2017 20:00:00 18,6 10,3 13 7 - - W 1015,7 50 0,0
15.08.2017 19:00:00 20,7 11,9 18 10 - - WNW 1015,1 45 0,0
15.08.2017 18:00:00 21,1 13,0 21 11 - - WNW 1014,8 50 0,0
15.08.2017 17:00:00 19,8 12,9 22 12 - - WNW 1014,7 50 0,0
15.08.2017 16:00:00 19,4 14,0 21 11 - - WNW 1014,3 50 0,0
15.08.2017 15:00:00 19,8 14,8 18 10 - - WNW 1013,9 50 0,0
15.08.2017 14:00:00 19,1 14,3 18 10 - - NW 1013,7 50 0,0
15.08.2017 13:00:00 19,2 14,2 16 9 - - NW 1013,5 50 0,0
15.08.2017 12:00:00 19,9 16,0 13 7 - - NNW 1013,3 30 0,0
15.08.2017 11:00:00 19,0 13,6 16 9 - - WSW 1013,3 50 0,0
15.08.2017 10:00:00 18,6 13,9 16 9 - - W 1013,3 45 0,0
15.08.2017 09:00:00 16,3 13,7 18 10 - - WSW 1012,7 40 0,0
15.08.2017 08:00:00 15,4 12,9 13 7 - - SW 1012,6 35 0,0
15.08.2017 07:00:00 14,8 12,7 13 7 - - SW 1012,7 20 0,0
15.08.2017 06:00:00 14,8 12,9 15 8 - - SSW 1012,5 17 0,0
15.08.2017 05:00:00 14,9 13,0 13 7 - - SSW 1012,3 16 0,0
15.08.2017 04:00:00 14,8 12,7 15 8 - - S 1012,2 18 0,0
15.08.2017 03:00:00 15,6 12,8 16 9 - - SSW 1013,0 22 0,0
15.08.2017 02:00:00 15,6 13,0 16 9 - - S 1013,1 26 0,0
15.08.2017 01:00:00 15,8 13,1 16 9 - - S 1013,3 30 0,0
15.08.2017 00:00:00 17,0 13,6 16 9 - - SSE 1013,7 23 0,0
14.08.2017 23:00:00 17,2 14,0 16 9 - - SSE 1014,2 18 0,0
14.08.2017 22:00:00 17,5 14,5 18 10 - - SSE 1014,7 17 0,0
14.08.2017 21:00:00 17,7 14,8 15 8 - - SE 1014,7 14 0,0
14.08.2017 20:00:00 18,6 14,8 16 9 - - SE 1014,5 19 0,0
14.08.2017 19:00:00 19,4 14,8 16 9 - - SE 1014,7 30 0,0
14.08.2017 18:00:00 20,0 14,1 16 9 - - SE 1015,2 30 0,0
14.08.2017 17:00:00 20,6 14,3 18 10 - - SE 1015,3 40 0,0
14.08.2017 16:00:00 21,6 14,5 16 9 - - SSE 1015,5 35 0,0
14.08.2017 15:00:00 22,5 12,3 18 10 - - S 1016,0 35 0,0
14.08.2017 14:00:00 21,9 12,8 21 11 - - SSE 1016,6 50 0,0
14.08.2017 13:00:00 21,8 12,1 21 11 - - S 1017,3 45 0,0
14.08.2017 12:00:00 20,9 10,9 18 10 - - S 1017,9 50 0,0
14.08.2017 11:00:00 19,6 11,6 15 8 - - S 1018,6 45 0,0
14.08.2017 10:00:00 18,3 12,2 15 8 - - S 1019,2 50 0,0
14.08.2017 09:00:00 17,2 12,5 13 7 - - S 1019,3 40 0,0
14.08.2017 08:00:00 15,9 12,6 16 9 - - S 1019,4 50 0,0
14.08.2017 07:00:00 13,9 11,1 22 12 - - S 1019,3 50 0,0
14.08.2017 06:00:00 13,0 10,4 24 13 - - S 1019,1 45 0,0
14.08.2017 05:00:00 13,4 10,6 24 13 - - S 1019,3 50 0,0
14.08.2017 04:00:00 13,3 10,9 22 12 - - S 1019,7 40 0,0
14.08.2017 03:00:00 13,2 11,6 22 12 - - S 1020,1 35 0,0
14.08.2017 02:00:00 13,4 12,0 22 12 - - S 1020,5 35 0,0
14.08.2017 01:00:00 13,7 12,4 21 11 - - SSE 1021,0 45 0,0
14.08.2017 00:00:00 13,6 12,0 16 9 - - SSE 1021,1 50 0,0
13.08.2017 23:00:00 13,5 12,3 15 8 - - SSE 1021,6 45 0,0
13.08.2017 22:00:00 13,6 12,0 16 9 - - SSE 1021,7 45 0,0
13.08.2017 21:00:00 13,2 11,2 13 7 - - SSE 1021,7 45 0,0
13.08.2017 20:00:00 14,2 9,4 11 6 - - ESE 1021,3 50 0,0
13.08.2017 19:00:00 16,0 8,5 15 8 - - E 1021,3 45 0,0
13.08.2017 18:00:00 16,7 9,2 16 9 - - E 1021,2 40 0,0
13.08.2017 17:00:00 17,0 10,2 13 7 - - ENE 1021,3 40 0,0
13.08.2017 16:00:00 17,1 11,2 13 7 - - ENE 1021,4 30 0,0
13.08.2017 15:00:00 17,1 11,4 11 6 - - NE 1021,5 23 0,0
13.08.2017 14:00:00 16,9 11,5 11 6 - - N 1021,4 22 0,0
13.08.2017 13:00:00 17,5 11,9 11 6 - - NNW 1021,7 30 0,0
13.08.2017 12:00:00 16,2 11,4 15 8 - - NW 1021,6 40 0,0
13.08.2017 11:00:00 15,6 12,9 18 10 - - NW 1021,4 35 0,0
13.08.2017 10:00:00 14,9 13,1 9 5 - - NNW 1020,9 50 0,0
13.08.2017 09:00:00 14,4 13,5 9 5 - - WSW 1020,4 23 0,0
13.08.2017 08:00:00 13,6 13,2 11 6 - - WSW 1019,8 14 0,2
13.08.2017 07:00:00 13,5 13,3 8 4 - - W 1019,5 5 0,0
13.08.2017 06:00:00 13,2 12,6 9 5 - - SSW 1019,0 45 0,0
13.08.2017 05:00:00 12,8 11,7 8 4 - - SSW 1018,8 30 0,0
13.08.2017 04:00:00 14,1 12,3 11 6 - - N 1018,7 35 0,0
13.08.2017 03:00:00 13,9 12,3 9 5 - - N 1018,4 35 0,0
13.08.2017 02:00:00 14,6 12,7 13 7 - - NNW 1018,2 45 0,0
13.08.2017 01:00:00 14,8 13,4 13 7 - - NW 1018,1 40 0,0
13.08.2017 00:00:00 14,9 13,5 21 11 - - NNW 1017,9 30 0,0
12.08.2017 23:00:00 14,8 13,4 21 11 - - NNW 1017,4 27 0,0
12.08.2017 22:00:00 15,1 14,2 22 12 - - NNW 1017,0 35 0,0
12.08.2017 21:00:00 15,8 14,2 26 14 - - NW 1016,3 40 0,0
12.08.2017 20:00:00 17,9 12,9 18 10 - - W 1015,3 50 0,0
12.08.2017 19:00:00 19,0 11,8 24 13 - - W 1014,7 50 0,0
12.08.2017 18:00:00 18,7 11,7 22 12 - - W 1014,7 45 0,0
12.08.2017 17:00:00 19,7 11,9 28 15 - - WNW 1014,5 50 0,0
12.08.2017 16:00:00 21,1 12,6 26 14 - - WNW 1014,2 50 0,0
12.08.2017 15:00:00 20,1 12,6 26 14 - - WNW 1014,1 40 0,0
12.08.2017 14:00:00 19,0 12,5 28 15 - - W 1014,1 45 0,0
12.08.2017 13:00:00 18,7 13,5 24 13 - - W 1014,0 50 0,0
12.08.2017 12:00:00 17,4 12,3 26 14 46 25 WNW 1013,8 50 0,0
12.08.2017 11:00:00 18,9 15,0 35 19 - - W 1013,1 40 0,0
12.08.2017 10:00:00 18,6 14,2 29 16 - - W 1012,6 25 0,0
12.08.2017 09:00:00 18,6 15,0 28 15 - - W 1012,2 50 0,0
12.08.2017 08:00:00 17,0 15,4 24 13 - - WSW 1012,1 40 0,0
12.08.2017 07:00:00 16,2 15,2 18 10 - - WSW 1011,8 50 0,0
12.08.2017 06:00:00 15,4 14,8 18 10 - - WSW 1011,7 50 0,0
12.08.2017 05:00:00 15,8 15,0 21 11 - - SW 1011,5 45 0,0
12.08.2017 04:00:00 16,3 15,3 24 13 - - SW 1011,7 50 0,0
12.08.2017 03:00:00 16,7 15,0 26 14 - - SW 1012,0 50 0,0
12.08.2017 02:00:00 16,6 14,8 26 14 - - SW 1012,0 50 0,0
12.08.2017 01:00:00 16,5 14,7 22 12 - - SW 1012,2 50 0,0
12.08.2017 00:00:00 16,1 14,7 26 14 - - SW 1012,6 50 0,0
11.08.2017 23:00:00 16,0 14,9 24 13 - - SW 1013,2 24 0,0
11.08.2017 22:00:00 17,2 13,8 22 12 - - SW 1013,8 45 0,0
11.08.2017 21:00:00 17,4 13,1 18 10 - - WSW 1013,9 45 0,0
11.08.2017 20:00:00 17,9 12,6 22 12 - - WSW 1013,9 50 0,0
11.08.2017 19:00:00 18,7 12,5 24 13 - - WSW 1013,8 45 0,0
11.08.2017 18:00:00 19,7 10,9 29 16 - - W 1014,4 50 0,0
11.08.2017 17:00:00 20,6 10,0 24 13 - - WSW 1014,6 30 0,0
11.08.2017 16:00:00 21,5 9,3 24 13 - - WSW 1015,2 50 0,0
11.08.2017 15:00:00 21,8 11,0 24 13 - - SW 1015,7 45 0,0
11.08.2017 14:00:00 21,9 10,4 26 14 - - SW 1015,9 50 0,0
11.08.2017 13:00:00 20,3 11,1 28 15 - - SW 1016,4 30 0,0
11.08.2017 12:00:00 18,4 14,1 18 10 - - NW 1017,2 35 0,0
11.08.2017 11:00:00 20,3 12,5 18 10 - - SW 1017,6 40 0,0
11.08.2017 10:00:00 18,9 12,9 16 9 - - WSW 1018,0 24 0,0
11.08.2017 09:00:00 16,7 12,2 18 10 - - SW 1018,2 35 0,0
11.08.2017 08:00:00 14,5 11,2 15 8 - - SSW 1018,4 50 0,0
11.08.2017 07:00:00 12,4 10,7 16 9 - - SSW 1018,9 50 0,0
11.08.2017 06:00:00 11,0 9,7 16 9 - - SSW 1019,0 16 0,0
11.08.2017 05:00:00 11,2 9,8 21 11 - - SSW 1019,6 26 0,0
11.08.2017 04:00:00 10,9 9,8 18 10 - - SSW 1019,9 45 0,0
11.08.2017 03:00:00 10,7 9,4 18 10 - - SSW 1020,4 50 0,0
11.08.2017 02:00:00 11,7 10,8 16 9 - - S 1021,3 45 0,0
11.08.2017 01:00:00 12,0 10,7 18 10 - - S 1022,0 50 0,0
11.08.2017 00:00:00 9,3 9,0 11 6 - - S 1022,2 28 0,0
10.08.2017 23:00:00 10,0 9,3 4 2 - - SE 1022,4 23 0,0
10.08.2017 22:00:00 11,3 10,2 13 7 - - SE 1022,8 45 0,0
10.08.2017 21:00:00 10,9 9,2 9 5 - - SE 1022,9 50 0,0
10.08.2017 20:00:00 14,8 10,9 5 3 - - ENE 1022,9 24 0,0
10.08.2017 19:00:00 15,6 10,9 8 4 - - NNE 1022,7 45 0,0
10.08.2017 18:00:00 16,5 11,4 11 6 - - NNE 1023,0 35 0,0

tt = temperature
td = dewpoint
ff = wind speed
fx = gusts
dd = wind direction
ppp = reduced air pressure
vv = visibility
rr = precipitation

Next stations